Weather History for Hayward, WI

Change the Weather History Date:

Tuesday, November 12, 2013

  Actual Average Record
Temperature  
Mean Temperature 18 °F -  
Max Temperature 26 °F 31 °F 63 °F (2011)
Min Temperature 10 °F 9 °F -14 °F (1966)
Degree Days  
Heating Degree Days 47    
Moisture  
Dew Point 6 °F    
Average Humidity 62    
Maximum Humidity 81    
Minimum Humidity 40    
Precipitation  
Precipitation 0.00 in - - ()
Sea Level Pressure  
Sea Level Pressure 30.66 in    
Wind  
Wind Speed 4 mph (SW)    
Max Wind Speed 8 mph    
Max Gust Speed -    
Visibility 10 miles    
Events Snow    
Averages and records for this station are not official NWS values.
T = Trace of Precipitation, MM = Missing Value Source: NWS Daily Summary

Daily Weather History Graph

Daily Weather History Graph

Search for Another Location

Airport:

Trip Planner

Search our weather history database for the weather conditions in past years. The results will help you decide how hot, cold, wet, or windy it might be!

Date:

Astronomy

Nov. 12, 2013 Rise Set
Actual Time 7:02 AM CST 4:36 PM CST
Civil Twilight 6:30 AM CST 5:09 PM CST
Nautical Twilight 5:54 AM CST 5:45 PM CST
Astronomical Twilight 5:18 AM CST 6:20 PM CST
Moon 2:05 PM CST (11/12) 1:36 AM CST (11/12)
Length of Visible Light 10h 38m
Length of Day
9h 34m
Waxing Gibbous, 76% of the Moon is Illuminated
Nov 12
Waxing Gibbous
Nov 17
Full
Nov 25
Last Quarter
Dec 2
New
Dec 9
First Quarter

Hourly Weather History & Observations

Time (CST) Temp. Windchill Dew Point Humidity Pressure Visibility Wind Dir Wind Speed Gust Speed Precip Events Conditions
12:53 AM 12.9 °F 6.9 °F 5.0 °F 71% 30.73 in 10.0 mi Variable 3.5 mph - N/A   Scattered Clouds
1:03 AM 12.2 °F - 5.0 °F 73% 30.65 in 10.0 mi Calm Calm - N/A   Mostly Cloudy
1:53 AM 12.0 °F 5.9 °F 5.0 °F 73% 30.72 in 10.0 mi Variable 3.5 mph - N/A   Overcast
2:53 AM 12.0 °F 5.9 °F 5.0 °F 73% 30.74 in 10.0 mi Variable 3.5 mph - N/A   Overcast
3:53 AM 10.9 °F 4.7 °F 6.1 °F 81% 30.76 in 8.0 mi Variable 3.5 mph - 0.00 in Snow Light Snow
4:53 AM 10.0 °F 3.6 °F 5.0 °F 80% 30.76 in 10.0 mi Variable 3.5 mph - 0.00 in   Overcast
5:26 AM 10.4 °F 4.0 °F 5.0 °F 79% 30.67 in 10.0 mi Variable 3.5 mph - N/A   Scattered Clouds
5:53 AM 10.0 °F 3.6 °F 5.0 °F 80% 30.76 in 10.0 mi Variable 3.5 mph - N/A   Clear
6:53 AM 10.0 °F - 5.0 °F 80% 30.75 in 10.0 mi Calm Calm - N/A   Clear
7:53 AM 10.9 °F - 6.1 °F 81% 30.76 in 10.0 mi Calm Calm - N/A   Clear
8:53 AM 14.0 °F 6.5 °F 7.0 °F 74% 30.76 in 10.0 mi Variable 4.6 mph - N/A   Clear
9:53 AM 17.1 °F 7.6 °F 8.1 °F 68% 30.75 in 10.0 mi Variable 6.9 mph - N/A   Clear
10:53 AM 19.0 °F 10.0 °F 8.1 °F 62% 30.74 in 10.0 mi WSW 6.9 mph - N/A   Clear
11:53 AM 23.0 °F 17.0 °F 6.1 °F 48% 30.71 in 10.0 mi Variable 4.6 mph - N/A   Clear
12:53 PM 25.0 °F 18.1 °F 7.0 °F 46% 30.67 in 10.0 mi Variable 5.8 mph - N/A   Clear
1:53 PM 26.1 °F 17.6 °F 5.0 °F 41% 30.65 in 10.0 mi SW 8.1 mph - N/A   Clear
2:53 PM 26.1 °F 19.4 °F 5.0 °F 41% 30.63 in 10.0 mi Variable 5.8 mph - N/A   Clear
3:53 PM 25.0 °F 18.1 °F 3.9 °F 41% 30.62 in 10.0 mi Variable 5.8 mph - N/A   Clear
4:53 PM 24.1 °F 19.7 °F 3.0 °F 40% 30.62 in 10.0 mi Variable 3.5 mph - N/A   Clear
5:53 PM 23.0 °F 17.0 °F 3.9 °F 44% 30.60 in 10.0 mi Variable 4.6 mph - N/A   Clear
6:53 PM 21.9 °F 17.2 °F 5.0 °F 48% 30.57 in 10.0 mi SSW 3.5 mph - N/A   Clear
7:53 PM 21.0 °F 14.6 °F 6.1 °F 53% 30.56 in 10.0 mi SW 4.6 mph - N/A   Clear
8:53 PM 21.0 °F 14.6 °F 7.0 °F 55% 30.54 in 10.0 mi SW 4.6 mph - N/A   Clear
9:53 PM 21.0 °F 14.6 °F 7.0 °F 55% 30.51 in 10.0 mi SW 4.6 mph - N/A   Clear
10:53 PM 19.9 °F 13.4 °F 8.1 °F 60% 30.49 in 10.0 mi SSW 4.6 mph - N/A   Clear
11:53 PM 19.9 °F 13.4 °F 9.0 °F 62% 30.47 in 10.0 mi SSW 4.6 mph - N/A   Clear